GW7961 Weather Reports


Display with metric or nautical units.
time (UTC)temp
F
wind
direction
speed
MPH
gust
MPH
rain 1hr
in
rain 24hr
in
rain mn
in
humidity
%
barometer
mb
20260906212041 58 0 1.0 7.0 0.00 0.03 0.03 90 1002.7
20260906211601 58 225 1.0 5.0 0.00 0.03 0.03 90 1002.8
20260906211041 58 169 1.0 11.0 0.00 0.03 0.03 90 1002.7
20260906210541 58 215 6.0 12.0 0.00 0.03 0.03 90 1002.8
20260906210111 58 243 5.0 12.0 0.00 0.03 0.03 90 1002.9
20260906205542 58 299 7.0 11.0 0.00 0.03 0.03 90 1002.8
20260906205041 59 299 6.0 10.0 0.00 0.03 0.03 90 1002.9
20260906204554 58 300 6.0 9.0 0.00 0.03 0.03 90 1002.9
20260906204042 58 291 1.0 6.0 0.00 0.03 0.03 90 1002.9
20260906203542 58 0 0.0 2.0 0.00 0.03 0.03 90 1002.9
20260906203101 58 0 0.0 8.0 0.00 0.03 0.03 90 1002.9
20260906202541 58 257 1.0 8.0 0.00 0.03 0.03 90 1002.9
20260906202044 58 270 2.0 6.0 0.01 0.03 0.03 90 1003.3
20260906201636 58 315 0.0 4.0 0.02 0.03 0.03 91 1003.2
20260906201041 58 211 1.0 5.0 0.03 0.03 0.03 91 1003.0
20260906200541 58 215 1.0 11.0 0.03 0.03 0.03 91 1002.9
20260906200059 58 278 6.0 11.0 0.03 0.03 0.03 91 1002.9
20260906195540 58 268 3.0 8.0 0.03 0.03 0.03 91 1002.9
20260906195041 58 256 2.0 8.0 0.03 0.03 0.03 91 1002.9
20260906194609 58 289 1.0 10.0 0.03 0.03 0.03 92 1002.7
20260906194042 59 259 4.0 10.0 0.03 0.03 0.03 92 1002.7
20260906193541 59 256 4.0 11.0 0.03 0.03 0.03 92 1002.5
20260906193102 59 261 7.0 18.0 0.03 0.03 0.03 92 1002.4
20260906192541 60 277 4.0 21.0 0.03 0.03 0.03 92 1002.6
20260906192041 60 271 12.0 21.0 0.02 0.02 0.02 92 1002.4
20260906191610 60 335 11.0 18.0 0.00 0.00 0.00 92 1002.5
20260906191044 60 1 11.0 18.0 0.00 0.00 0.00 92 1002.3
20260906190542 60 15 11.0 20.0 0.00 0.00 0.00 92 1002.3
20260906185543 60 72 13.0 22.0 0.00 0.00 0.00 92 1002.6
20260906185041 60 29 13.0 22.0 0.00 0.00 0.00 92 1002.7
20260906184603 60 3 12.0 22.0 0.00 0.00 0.00 92 1002.7
20260906184041 60 345 13.0 21.0 0.00 0.00 0.00 92 1002.9
20260906183542 60 87 13.0 21.0 0.00 0.00 0.00 92 1003.1
20260906183105 60 87 12.0 19.0 0.00 0.00 0.00 92 1003.2
20260906182544 60 358 11.0 20.0 0.00 0.00 0.00 92 1003.3
20260906182044 60 345 12.0 20.0 0.00 0.00 0.00 92 1003.5
20260906181629 60 326 12.0 19.0 0.00 0.00 0.00 92 1003.6
20260906181042 60 330 12.0 20.0 0.00 0.00 0.00 92 1003.7
20260906180542 60 347 12.0 24.0 0.00 0.00 0.00 91 1003.7
20260906180106 60 27 13.0 24.0 0.00 0.00 0.00 91 1003.8
20260906175541 60 330 18.0 24.0 0.00 0.00 0.00 91 1003.8
20260906175041 60 354 18.0 25.0 0.00 0.00 0.00 91 1003.8
20260906174611 60 334 17.0 27.0 0.00 0.00 0.00 91 1003.7
20260906174041 60 329 18.0 28.0 0.00 0.00 0.00 91 1003.9
20260906173542 60 335 19.0 28.0 0.00 0.00 0.00 91 1003.9
20260906173105 60 321 20.0 30.0 0.00 0.00 0.00 91 1004.1
20260906172540 60 335 20.0 30.0 0.00 0.00 0.00 91 1004.2
20260906172041 60 329 21.0 30.0 0.00 0.00 0.00 91 1004.1
20260906171555 60 329 20.0 32.0 0.00 0.00 0.00 91 1004.3
20260906171041 60 330 22.0 32.0 0.00 0.00 0.00 91 1004.1
20260906170541 60 330 21.0 29.0 0.00 0.00 0.00 92 1004.2
20260906170058 60 10 20.0 28.0 0.00 0.00 0.00 92 1004.2
20260906165541 60 329 17.0 25.0 0.00 0.00 0.00 91 1004.3
20260906165041 60 329 18.0 25.0 0.00 0.00 0.00 91 1004.5
20260906164602 60 331 16.0 23.0 0.00 0.00 0.00 91 1004.5
20260906164041 60 304 17.0 24.0 0.00 0.00 0.00 91 1004.6
20260906163541 60 278 17.0 25.0 0.00 0.00 0.00 91 1004.7
20260906163105 60 313 17.0 25.0 0.00 0.00 0.00 91 1004.8
20260906162541 60 358 18.0 25.0 0.00 0.00 0.00 90 1004.9
20260906162038 60 358 19.0 27.0 0.00 0.00 0.00 90 1004.9
20260906161611 60 347 18.0 31.0 0.00 0.00 0.00 90 1004.9
20260906161041 60 345 22.0 31.0 0.00 0.00 0.00 90 1004.9
20260906160541 60 342 22.0 31.0 0.00 0.00 0.00 90 1005.0
20260906160106 60 351 21.0 31.0 0.00 0.00 0.00 90 1005.0
20260906155541 60 348 22.0 32.0 0.00 0.00 0.00 91 1005.0
20260906155041 60 317 21.0 32.0 0.00 0.00 0.00 91 1005.0
20260906154601 60 329 24.0 32.0 0.00 0.00 0.00 91 1005.0
20260906154041 60 334 23.0 32.0 0.00 0.00 0.00 91 1005.3
20260906153541 60 330 20.0 32.0 0.00 0.00 0.00 91 1005.2
20260906153107 60 345 22.0 32.0 0.00 0.00 0.00 91 1005.4
20260906152540 60 336 22.0 29.0 0.00 0.00 0.00 91 1005.5
20260906152046 60 330 21.0 27.0 0.00 0.00 0.00 91 1005.6
20260906151600 60 342 18.0 28.0 0.00 0.00 0.00 91 1005.8
20260906151040 60 337 22.0 32.0 0.00 0.00 0.00 91 1005.8
20260906150544 60 336 20.0 33.0 0.00 0.00 0.00 91 1005.9
20260906145541 60 337 18.0 26.0 0.00 0.00 0.00 91 1006.0
20260906145041 60 308 13.0 20.0 0.00 0.00 0.00 90 1006.2
20260906144559 60 327 15.0 22.0 0.00 0.00 0.00 90 1006.2
20260906144043 60 327 14.0 22.0 0.00 0.00 0.00 91 1006.5
20260906143541 60 320 15.0 24.0 0.00 0.00 0.00 91 1006.6
20260906143105 60 328 18.0 26.0 0.00 0.00 0.00 90 1006.7
20260906142540 61 357 18.0 26.0 0.00 0.00 0.00 90 1006.8
20260906142042 60 327 16.0 23.0 0.00 0.00 0.00 90 1006.9
20260906141601 60 345 14.0 23.0 0.00 0.00 0.00 90 1007.1
20260906141042 60 343 14.0 23.0 0.00 0.00 0.00 90 1007.1
20260906140541 60 347 15.0 24.0 0.00 0.00 0.00 91 1007.1
20260906140107 60 330 17.0 24.0 0.00 0.00 0.00 91 1007.3
20260906135541 60 310 18.0 25.0 0.00 0.00 0.00 91 1007.3
20260906135040 60 334 18.0 26.0 0.00 0.00 0.00 91 1007.3
20260906134617 60 333 17.0 26.0 0.00 0.00 0.00 91 1007.6
20260906134041 60 338 17.0 24.0 0.00 0.00 0.00 91 1007.5
20260906133541 60 333 16.0 24.0 0.00 0.00 0.00 91 1007.6
20260906133113 60 346 15.0 22.0 0.00 0.00 0.00 91 1007.6
20260906132544 60 334 13.0 22.0 0.00 0.00 0.00 91 1007.9
20260906132040 60 335 15.0 20.0 0.00 0.00 0.00 91 1008.0
20260906131602 60 344 13.0 20.0 0.00 0.00 0.00 91 1008.2
20260906131040 60 330 14.0 20.0 0.00 0.00 0.00 92 1008.2
20260906130542 60 326 13.0 20.0 0.00 0.00 0.00 92 1008.2
20260906130113 60 343 14.0 20.0 0.00 0.00 0.00 92 1008.2
20260906125544 60 296 15.0 20.0 0.00 0.00 0.00 92 1008.2
20260906125043 60 353 14.0 21.0 0.00 0.00 0.00 92 1008.3
20260906124612 60 341 13.0 21.0 0.00 0.00 0.00 92 1008.4
20260906124044 60 327 14.0 20.0 0.00 0.00 0.00 92 1008.5
20260906123540 60 328 14.0 20.0 0.00 0.00 0.00 92 1008.5
20260906123102 60 333 16.0 22.0 0.00 0.00 0.00 92 1008.6
20260906122541 60 326 14.0 23.0 0.00 0.00 0.00 92 1008.5
20260906122041 60 309 17.0 23.0 0.00 0.00 0.00 92 1008.6
20260906121611 60 328 16.0 23.0 0.00 0.00 0.00 92 1008.5
20260906121041 60 318 16.0 23.0 0.00 0.00 0.00 92 1008.6
20260906120541 60 337 16.0 23.0 0.00 0.00 0.00 92 1008.6
20260906120057 60 322 17.0 23.0 0.00 0.00 0.00 92 1008.8
20260906115542 60 320 16.0 21.0 0.00 0.00 0.00 92 1008.8
20260906115040 60 312 15.0 21.0 0.00 0.00 0.00 92 1008.9
20260906114607 60 320 15.0 21.0 0.00 0.00 0.00 92 1008.9
20260906114040 60 328 13.0 22.0 0.00 0.00 0.00 92 1008.9
20260906113540 60 334 14.0 22.0 0.00 0.00 0.00 92 1009.1
20260906113110 60 324 17.0 22.0 0.00 0.00 0.00 92 1009.2
20260906112540 60 337 16.0 24.0 0.00 0.00 0.00 91 1009.4
20260906112041 60 322 17.0 24.0 0.00 0.00 0.00 91 1009.4
20260906111558 60 329 16.0 21.0 0.00 0.00 0.00 91 1009.5
20260906111041 60 325 14.0 19.0 0.00 0.00 0.00 91 1009.5
20260906110541 60 353 12.0 21.0 0.00 0.00 0.00 91 1009.6
20260906110054 60 341 15.0 22.0 0.00 0.00 0.00 91 1009.7
20260906105541 60 322 16.0 22.0 0.00 0.00 0.00 91 1009.7
20260906105043 60 328 14.0 20.0 0.00 0.00 0.00 90 1009.8
20260906104601 60 357 13.0 21.0 0.00 0.00 0.00 90 1009.9
20260906104051 60 14 13.0 22.0 0.00 0.00 0.00 90 1010.0
20260906103541 60 351 16.0 28.0 0.00 0.00 0.00 90 1010.1
20260906103059 60 320 19.0 28.0 0.00 0.00 0.00 89 1010.2
20260906102542 60 335 17.0 24.0 0.00 0.00 0.00 89 1010.2
20260906102043 60 330 17.0 26.0 0.00 0.00 0.00 89 1010.2
20260906101605 60 353 18.0 26.0 0.00 0.00 0.00 89 1010.2
20260906101040 60 1 17.0 24.0 0.00 0.00 0.00 89 1010.3
20260906100541 60 335 15.0 22.0 0.00 0.00 0.00 89 1010.4
20260906100100 60 326 17.0 24.0 0.00 0.00 0.00 89 1010.5
20260906095540 60 333 18.0 24.0 0.00 0.00 0.00 88 1010.5
20260906095041 60 287 17.0 23.0 0.00 0.00 0.00 88 1010.7
20260906094559 60 341 15.0 20.0 0.00 0.00 0.00 88 1010.5
20260906094040 60 335 11.0 15.0 0.00 0.00 0.00 88 1010.6
20260906093540 60 319 10.0 15.0 0.00 0.00 0.00 88 1010.6
20260906093108 60 310 10.0 18.0 0.00 0.00 0.00 88 1010.7
20260906092541 60 305 12.0 21.0 0.00 0.00 0.00 88 1010.7
20260906092043 60 318 14.0 21.0 0.00 0.00 0.00 89 1010.8
20260906091602 59 326 14.0 21.0 0.00 0.00 0.00 89 1010.9
20260906091041 59 336 15.0 21.0 0.00 0.00 0.00 89 1010.9
20260906090540 59 326 12.0 16.0 0.00 0.00 0.00 89 1011.0
20260906090111 59 342 9.0 19.0 0.00 0.00 0.00 89 1011.0
20260906085540 59 30 11.0 19.0 0.00 0.00 0.00 89 1011.0
20260906085042 59 334 11.0 20.0 0.00 0.00 0.00 89 1011.1
20260906084603 59 334 13.0 20.0 0.00 0.00 0.00 88 1011.1
20260906084040 59 339 12.0 18.0 0.00 0.00 0.00 88 1011.0
20260906083541 59 350 12.0 18.0 0.00 0.00 0.00 88 1010.9
20260906083100 59 326 13.0 18.0 0.00 0.00 0.00 88 1010.9
20260906082541 59 337 13.0 18.0 0.00 0.00 0.00 88 1010.9
20260906082041 59 317 11.0 18.0 0.00 0.00 0.00 87 1011.0
20260906081601 59 331 11.0 16.0 0.00 0.00 0.00 87 1010.9
20260906081045 59 344 9.0 15.0 0.00 0.00 0.00 86 1010.9
20260906080543 59 347 10.0 15.0 0.00 0.00 0.00 87 1011.0
20260906080103 59 330 9.0 13.0 0.00 0.00 0.00 87 1011.1
20260906075541 59 308 9.0 13.0 0.00 0.00 0.00 86 1011.0
20260906075040 59 356 7.0 14.0 0.00 0.00 0.00 87 1011.1
20260906074559 59 318 9.0 15.0 0.00 0.00 0.00 87 1011.3
20260906074040 59 321 11.0 15.0 0.00 0.00 0.00 87 1011.3
20260906073541 59 324 11.0 14.0 0.00 0.00 0.00 87 1011.4
20260906073104 59 332 9.0 14.0 0.00 0.00 0.00 87 1011.5
20260906072547 59 328 10.0 18.0 0.00 0.00 0.00 87 1011.6
20260906072042 59 320 11.0 18.0 0.00 0.00 0.00 87 1011.7
20260906071608 59 325 14.0 21.0 0.00 0.00 0.00 87 1011.7
20260906071041 59 320 15.0 21.0 0.00 0.00 0.00 87 1011.8
20260906070543 59 351 14.0 20.0 0.00 0.00 0.00 87 1011.8
20260906070100 59 326 10.0 20.0 0.00 0.00 0.00 87 1011.9
20260906065543 59 309 12.0 20.0 0.00 0.00 0.00 87 1012.1
20260906065043 59 320 15.0 20.0 0.00 0.00 0.00 87 1012.0
20260906064603 59 332 15.0 19.0 0.00 0.00 0.00 87 1011.9
20260906064044 59 314 14.0 19.0 0.00 0.00 0.00 86 1012.0
20260906063547 59 319 13.0 17.0 0.00 0.00 0.00 86 1012.2
20260906063100 59 332 11.0 16.0 0.00 0.00 0.00 86 1012.2
20260906062546 59 334 10.0 15.0 0.00 0.00 0.00 86 1012.2
20260906062044 59 322 11.0 15.0 0.00 0.00 0.00 85 1012.3
20260906061605 59 330 11.0 15.0 0.00 0.00 0.00 85 1012.2
20260906061040 59 349 11.0 14.0 0.00 0.00 0.00 84 1012.3
20260906060543 59 339 11.0 15.0 0.00 0.00 0.00 84 1012.2
20260906060150 59 323 10.0 15.0 0.00 0.00 0.00 84 1012.3
20260906055541 60 322 11.0 16.0 0.00 0.00 0.00 84 1012.3
20260906055041 60 330 11.0 18.0 0.00 0.00 0.00 84 1012.3
20260906054616 59 328 12.0 18.0 0.00 0.00 0.00 83 1012.4
20260906054041 59 323 13.0 19.0 0.00 0.00 0.00 83 1012.4
20260906053545 60 332 13.0 19.0 0.00 0.00 0.00 82 1012.3
20260906053102 60 353 13.0 19.0 0.00 0.00 0.00 82 1012.4
20260906052540 60 326 13.0 20.0 0.00 0.00 0.00 82 1012.3
20260906052041 60 318 13.0 20.0 0.00 0.00 0.00 81 1012.3
20260906051605 60 333 14.0 20.0 0.00 0.00 0.00 80 1012.3
20260906051040 61 335 12.0 18.0 0.00 0.00 0.00 80 1012.3
20260906050540 61 328 12.0 18.0 0.00 0.00 0.00 80 1012.3
20260906050113 61 302 12.0 18.0 0.00 0.00 0.00 79 1012.3
20260906045541 61 333 10.0 16.0 0.00 0.00 0.00 79 1012.5
20260906045041 62 322 8.0 12.0 0.00 0.00 0.00 77 1012.6
20260906044603 62 326 7.0 12.0 0.00 0.00 0.00 76 1012.7
20260906044044 62 295 5.0 11.0 0.00 0.00 0.00 76 1012.7
20260906043540 62 283 6.0 11.0 0.00 0.00 0.00 78 1012.7
20260906043105 62 308 8.0 11.0 0.00 0.00 0.00 77 1012.8
20260906042541 61 308 5.0 9.0 0.00 0.00 0.00 77 1012.9
20260906042040 61 294 4.0 14.0 0.00 0.00 0.00 77 1012.9
20260906041559 61 274 8.0 15.0 0.00 0.00 0.00 78 1013.0
20260906041040 61 318 9.0 17.0 0.00 0.00 0.00 79 1012.9
20260906040540 60 303 11.0 18.0 0.00 0.00 0.00 78 1013.0
20260906040109 60 330 11.0 18.0 0.00 0.00 0.00 79 1013.0
20260906035541 60 326 13.0 18.0 0.00 0.00 0.00 78 1013.1
20260906035043 61 324 12.0 18.0 0.00 0.00 0.00 78 1013.2
20260906034602 61 326 13.0 18.0 0.00 0.00 0.00 78 1013.3
20260906034042 61 320 13.0 18.0 0.00 0.00 0.00 78 1013.3
20260906033540 61 327 12.0 18.0 0.00 0.00 0.00 76 1013.4
20260906033104 62 335 10.0 16.0 0.00 0.00 0.00 75 1013.5
20260906032540 62 323 10.0 16.0 0.00 0.00 0.00 72 1013.6
20260906032040 62 307 10.0 16.0 0.00 0.00 0.00 72 1013.6
20260906031617 62 308 11.0 17.0 0.00 0.00 0.00 73 1013.6
20260906031041 62 318 10.0 17.0 0.00 0.00 0.00 73 1013.7
20260906030540 62 329 12.0 17.0 0.00 0.00 0.00 72 1013.9
20260906030104 62 331 9.0 15.0 0.00 0.00 0.00 71 1014.0
20260906025540 62 302 9.0 19.0 0.00 0.00 0.00 72 1013.9
20260906025041 62 308 11.0 19.0 0.00 0.00 0.00 69 1013.9
20260906024605 62 303 10.0 15.0 0.00 0.00 0.00 71 1014.0
20260906024040 63 303 11.0 15.0 0.00 0.00 0.00 70 1014.0
20260906023540 63 324 12.0 15.0 0.00 0.00 0.00 70 1014.0
20260906023109 63 320 11.0 17.0 0.00 0.00 0.00 71 1013.8
20260906022543 63 303 11.0 18.0 0.00 0.00 0.00 71 1013.9
20260906022041 63 297 12.0 18.0 0.00 0.00 0.00 69 1014.0
20260906021602 63 299 12.0 18.0 0.00 0.00 0.00 69 1013.9
20260906021042 64 301 12.0 18.0 0.00 0.00 0.00 68 1013.9
20260906020541 64 310 10.0 17.0 0.00 0.00 0.00 69 1014.0
20260906015540 63 308 12.0 28.0 0.00 0.00 0.00 67 1014.0
20260906015040 64 274 11.0 28.0 0.00 0.00 0.00 67 1013.9
20260906014600 64 299 15.0 28.0 0.00 0.00 0.00 68 1014.1
20260906014040 63 320 10.0 20.0 0.00 0.00 0.00 68 1014.2
20260906013540 63 298 13.0 20.0 0.00 0.00 0.00 68 1014.6
20260906013101 64 304 13.0 17.0 0.00 0.00 0.00 68 1014.5
20260906012542 64 308 11.0 23.0 0.00 0.00 0.00 68 1014.5
20260906012043 63 289 13.0 23.0 0.00 0.00 0.00 66 1014.6
20260906011605 63 265 11.0 21.0 0.00 0.00 0.00 67 1014.7
20260906011041 63 298 12.0 21.0 0.00 0.00 0.00 67 1014.9
20260906010540 63 306 14.0 21.0 0.00 0.00 0.00 67 1015.0
20260906010107 63 304 13.0 19.0 0.00 0.00 0.00 67 1015.0
20260906005540 64 272 8.0 18.0 0.00 0.00 0.00 66 1015.2
20260906005040 63 290 8.0 18.0 0.00 0.00 0.00 65 1015.2
20260906004608 62 260 9.0 14.0 0.00 0.00 0.00 64 1015.2
20260906004040 62 258 8.0 16.0 0.00 0.00 0.00 64 1015.4
20260906003540 62 277 10.0 17.0 0.00 0.00 0.00 67 1015.5
20260906003105 62 279 12.0 17.0 0.00 0.00 0.00 66 1015.5
20260906002540 62 302 7.0 13.0 0.00 0.00 0.00 65 1015.7
20260906002041 62 297 8.0 16.0 0.00 0.00 0.00 68 1015.8
20260906001601 62 297 8.0 16.0 0.00 0.00 0.00 67 1015.9
20260906001040 63 295 12.0 20.0 0.00 0.00 0.00 68 1015.9
20260906000540 63 306 11.0 20.0 0.00 0.00 0.00 68 1016.0
20260906000109 63 296 14.0 18.0 0.00 0.00 0.00 68 1016.2
20260905235543 63 301 11.0 18.0 0.00 0.00 0.00 70 1016.2
20260905235040 62 294 12.0 18.0 0.00 0.00 0.00 70 1016.3
20260905234604 63 297 8.0 15.0 0.00 0.00 0.00 70 1016.4
20260905234040 63 301 9.0 15.0 0.00 0.00 0.00 72 1016.5
20260905233540 62 301 9.0 14.0 0.00 0.00 0.00 71 1016.7
20260905233106 62 285 9.0 14.0 0.00 0.00 0.00 72 1016.7
20260905232540 61 303 7.0 16.0 0.00 0.00 0.00 71 1016.8
20260905232042 61 263 9.0 16.0 0.00 0.00 0.00 71 1017.0
20260905231617 61 290 9.0 15.0 0.00 0.00 0.00 72 1017.1
20260905231041 61 312 9.0 14.0 0.00 0.00 0.00 72 1017.1
20260905230542 61 301 8.0 14.0 0.00 0.00 0.00 73 1017.1
20260905230108 61 282 10.0 15.0 0.00 0.00 0.00 73 1017.3
20260905225541 61 307 10.0 17.0 0.00 0.00 0.00 72 1017.3
20260905225042 61 295 9.0 17.0 0.00 0.00 0.00 73 1017.5
20260905224559 61 290 10.0 17.0 0.00 0.00 0.00 72 1017.7
20260905224041 61 268 10.0 17.0 0.00 0.00 0.00 72 1017.8
20260905223541 61 278 9.0 17.0 0.00 0.00 0.00 74 1017.7
20260905223102 61 306 11.0 17.0 0.00 0.00 0.00 75 1017.7
20260905222541 61 297 10.0 17.0 0.00 0.00 0.00 75 1017.8
20260905222042 60 298 10.0 18.0 0.00 0.00 0.00 76 1017.9
20260905221610 60 267 12.0 19.0 0.00 0.00 0.00 76 1017.8
20260905221042 60 292 10.0 19.0 0.00 0.00 0.00 75 1017.9
20260905220541 60 289 8.0 15.0 0.00 0.00 0.00 74 1017.9
20260905220103 60 299 10.0 17.0 0.00 0.00 0.00 74 1018.0
20260905215542 60 294 9.0 17.0 0.00 0.00 0.00 74 1018.1
20260905215045 61 297 12.0 17.0 0.00 0.00 0.00 78 1017.9
20260905214607 61 291 9.0 12.0 0.00 0.00 0.00 76 1017.9
20260905214042 61 272 6.0 11.0 0.00 0.00 0.00 77 1017.9
20260905213542 61 300 9.0 12.0 0.00 0.00 0.00 77 1018.1
20260905213056 61 301 9.0 12.0 0.00 0.00 0.00 79 1018.0
20260905212543 60 314 8.0 11.0 0.00 0.00 0.00 79 1018.0